Regional Weather Roundup
Issued by NWS

Home | Current Version | Previous Version | Graphics & Text | Print | Product List | Glossary On
Versions: 1 2 3 4 5 6 7 8 9 10 11 12 13 14 15 16 17 18 19 20 21 22 23 24 25 26 27 28 29 30 31 32 33 34 35 36 37 38 39 40 41 42 43 44 45 46 47 48 49 50
000
ASUS45 KTFX 010110
RWRMT
MONTANA REGIONAL WEATHER ROUNDUP
NATIONAL WEATHER SERVICE GREAT FALLS MT
700 PM MDT FRI JUL 31 2015

NOTE: "FAIR" INDICATES FEW OR NO CLOUDS BELOW 12000 FEET WITH NO
SIGNIFICANT WEATHER AND/OR OBSTRUCTIONS TO VISIBILITY.

MTZ001>007-043-010200-
WEST OF THE DIVIDE

CITY           SKY/WX    TMP DP  RH WIND       PRES   REMARKS
KALISPELL      CLEAR     92  34  13 S9        30.00F
MISSOULA       SUNNY     93  27   9 S7        30.05F
BUTTE          SUNNY     85  24  11 NW8       30.24F
MULLAN PASS    SUNNY     81  29  15 VRB3      30.29F
DEER LODGE       N/A     90  28  11 CALM      30.20F
EUREKA           N/A     97  32  10 SW7       29.98F HX  91
HAMILTON         N/A     93  30  10 NE3       30.09S
LIBBY            N/A     97  28   9 W3        29.99F HX  91
$$

MTZ008-052>055-010200-
SOUTHWEST MONTANA

CITY           SKY/WX    TMP DP  RH WIND       PRES   REMARKS
BOZEMAN        SUNNY     88  35  15 E5        30.16F
DILLON         SUNNY     87  21   9 CALM      30.20F
W YELLOWSTONE  SUNNY     75  32  20 W6        30.33S
$$

MTZ009-010-012-014-046-048-049-054-010200-
EAST SLOPES AND CENTRAL MONTANA

CITY           SKY/WX    TMP DP  RH WIND       PRES   REMARKS
CUT BANK       SUNNY     90  24   9 W9        30.06F
GREAT FALLS    SUNNY     89  27  10 S3        30.07F
MALMSTROM AFB  SUNNY     89  27  10 SW2       30.07F
HELENA         SUNNY     93  29  10 W13       30.09F
$$

MTZ011-013-016-021-045-047-050-051-010200-
NORTH CENTRAL MONTANA

CITY           SKY/WX    TMP DP  RH WIND       PRES   REMARKS
HAVRE          SUNNY     92  34  13 N6        30.00F
LEWISTOWN      SUNNY     87  41  19 N7        30.13F
CHINOOK          N/A     90  36  14 NW6       29.99F
FORT BENTON      N/A     91  37  15 NE5       30.02F
$$

MTZ017>020-022>027-061-062-010200-
NORTHEAST MONTANA

CITY           SKY/WX    TMP DP  RH WIND       PRES   REMARKS
GLASGOW        SUNNY     92  40  16 W10       29.97F
JORDAN           N/A     93  38  14 NW13      30.00F
SIDNEY         SUNNY    N/A N/A N/A NE10      29.97F
WOLF POINT     SUNNY     94  44  17 NE8       29.96F HX  90
PLENTYWOOD       N/A     81  48  32 E8        30.02F
POPLAR           N/A     90  45  20 NE6       29.97F
$$

MTZ028>42-056>058-010200-
SOUTHCENTRAL AND SOUTHEAST MONTANA

CITY           SKY/WX    TMP DP  RH WIND       PRES   REMARKS
BAKER          SUNNY     90  40  17 E10       30.05F
BILLINGS       MOSUNNY   93  28  10 NE14      30.07F
LIVINGSTON     SUNNY     89  26  10 NW14      30.16F
MILES CITY     SUNNY     95  36  12 NW12      29.98F HX  90
FORSYTH          N/A     93  39  15 W5        29.99F
$$

REGIONAL REPORTS...DAKOTAS

CITY           SKY/WX    TMP DP  RH WIND       PRES   REMARKS
WILLISTON      SUNNY     87  46  24 NE8       30.01F
MINOT          SUNNY     78  50  37 NW7       30.02F
DICKINSON      SUNNY     81  57  43 E6        30.03F
BEACH          FAIR      84  48  28 SE8       30.04F
CROSBY         FAIR      77  55  47 NE5       30.04F
BISMARCK       SUNNY     83  55  38 NE8       30.02F
GRAND FORKS    CLEAR     77  54  44 NW7       29.96S
FARGO          CLEAR     79  58  48 N6        29.97F
BUFFALO SD       N/A     86  44  23 SE10      30.01F
RAPID CITY     MOSUNNY   80  56  43 NE10      30.10F
$$

REGIONAL REPORTS...WYOMING/IDAHO/WASHINGTON

CITY           SKY/WX    TMP DP  RH WIND       PRES   REMARKS
GILLETTE       MOSUNNY   88  43  20 NE13      30.12F
SHERIDAN       SUNNY     90  39  16 SW5       30.09F
BUFFALO WY     MOSUNNY   87  38  17 N10       30.18S
CODY           MOSUNNY   82  39  21 NE6       30.18S
YELLOWSTONE LA   N/A     73  30  20 CALM      30.43F
IDAHO FALLS    SUNNY     91  29  11 NE7       30.17F
SALMON         SUNNY     90  46  22 CALM      30.08F
BOISE          SUNNY     97  38  13 W10       30.02F HX  92
SPOKANE        PTSUNNY   98  20   6 SW16G22   29.99F HX  91
$$

REGIONAL REPORTS...ALBERTA

CITY           SKY/WX    TMP DP  RH WIND       PRES   REMARKS
EDMONTON       SUNNY     81  54  39 NW3       29.94F
CALGARY        MOSUNNY   86  43  22 SE12      29.99F
LETHBRIDGE     MOSUNNY   91  37  15 W8G17     29.97F
MEDICINE HAT   SUNNY     91  37  15 SW7       29.96F
CARDSTON         N/A     90  32  12 W7          N/A
MILK RIVER       N/A     90  32  12 W7          N/A
ONEFOUR          N/A     86  37  17 N5          N/A
$$

REGIONAL REPORTS...SASKATCHEWAN

CITY           SKY/WX    TMP DP  RH WIND       PRES   REMARKS
SWIFT CURRENT  SUNNY     79  50  36 E14G21    30.03F
REGINA         MOSUNNY   81  50  34 NW3       30.04F
SASKATOON      PTSUNNY   77  52  41 SW7       30.02F
CYPRESS HILLS    N/A     81  32  17 W5          N/A
VAL MARIE        N/A     86  45  23 NW9         N/A
ROCKGLEN         N/A     79  54  41 NE3         N/A
ASSINIBOIA       N/A     81  54  39 SW3         N/A
$$



USA.gov is the U.S. government's official web portal to all federal, state and local government web resources and services.